パンスターズ彗星

C/2025 D5 ( PanSTARRS )

English version
Home page
Updated on May 2, 2025

---------------------------------------------------------------------

・ プロフィール

発見日 2025年2月28日
発見光度 20.6等
発見者 Pan-STARRS 2 telescope (Haleakala)

・ 軌道要素

Epoch 2025 May 5.0 TT = JDT 2460800.5
T 2025 May 13.28992 TT                                  Pike
q   2.0121700            (2000.0)            P               Q
z  +0.0002972      Peri.  211.49196     -0.85071834     +0.52547689
 +/-0.0004423      Node     0.73803     +0.05197213     +0.10746048
e   0.9994019      Incl.   73.38127     -0.52304608     -0.84399424
From 29 observations 2025 Feb. 20-Apr. 3, mean residual 0".4.

・ 光度変化

        m1 = 16.5 + 5 logΔ + 10.0 log r

---------------------------------------------------------------------

軌道要素はM.P.E.C. 2025-G119に掲載されたものです。
光度グラフはComet for Windowsで作成したものです。

---------------------------------------------------------------------

Copyright(C) Seiichi Yoshida (comet@aerith.net). All rights reserved.